TimeCST,TemperatureF,Dew PointF,Humidity,Sea Level PressureIn,VisibilityMPH,Wind Direction,Wind SpeedMPH,Gust SpeedMPH,PrecipitationIn,Events,Conditions,WindDirDegrees,DateUTC
12:15 AM,53.6,37.4,54,29.96,10.0,South,15.0,-,N/A,,Scattered Clouds,180,2013-02-18 06:15:00
12:35 AM,53.6,39.2,58,29.96,10.0,South,16.1,-,N/A,,Clear,180,2013-02-18 06:35:00
12:55 AM,53.6,39.2,58,29.95,10.0,South,16.1,24.2,N/A,,Clear,180,2013-02-18 06:55:00
1:15 AM,53.6,41.0,62,29.94,10.0,South,17.3,26.5,N/A,,Mostly Cloudy,180,2013-02-18 07:15:00
1:35 AM,53.6,41.0,62,29.94,10.0,South,18.4,24.2,N/A,,Mostly Cloudy,180,2013-02-18 07:35:00
1:55 AM,53.6,42.8,67,29.93,10.0,South,18.4,25.3,N/A,,Mostly Cloudy,180,2013-02-18 07:55:00
2:15 AM,53.6,42.8,67,29.93,10.0,South,15.0,-,N/A,,Overcast,180,2013-02-18 08:15:00
2:35 AM,55.4,42.8,63,29.93,10.0,South,15.0,21.9,N/A,,Overcast,180,2013-02-18 08:35:00
2:55 AM,55.4,42.8,63,29.92,10.0,South,13.8,21.9,N/A,,Overcast,180,2013-02-18 08:55:00
3:15 AM,55.4,44.6,67,29.92,10.0,South,16.1,21.9,N/A,,Overcast,180,2013-02-18 09:15:00
3:35 AM,55.4,44.6,67,29.91,10.0,South,16.1,19.6,N/A,,Overcast,170,2013-02-18 09:35:00
3:55 AM,55.4,44.6,67,29.90,10.0,South,16.1,21.9,N/A,,Overcast,170,2013-02-18 09:55:00
4:15 AM,55.4,44.6,67,29.89,10.0,SSE,15.0,-,N/A,,Overcast,150,2013-02-18 10:15:00
4:35 AM,53.6,44.6,72,29.88,10.0,SSE,12.7,-,N/A,,Overcast,150,2013-02-18 10:35:00
4:55 AM,53.6,44.6,72,29.88,10.0,SSE,12.7,-,N/A,,Overcast,160,2013-02-18 10:55:00
5:15 AM,53.6,44.6,72,29.88,10.0,SSE,10.4,-,N/A,,Overcast,160,2013-02-18 11:15:00
5:35 AM,53.6,46.4,77,29.88,10.0,SSE,15.0,-,N/A,,Overcast,160,2013-02-18 11:35:00
5:55 AM,55.4,46.4,72,29.87,10.0,SSE,16.1,-,N/A,,Overcast,160,2013-02-18 11:55:00
6:15 AM,55.4,46.4,72,29.86,10.0,South,15.0,21.9,N/A,,Overcast,170,2013-02-18 12:15:00
6:35 AM,55.4,46.4,72,29.85,10.0,South,17.3,-,N/A,,Overcast,170,2013-02-18 12:35:00
6:55 AM,55.4,46.4,72,29.84,10.0,South,16.1,21.9,N/A,,Overcast,170,2013-02-18 12:55:00
7:15 AM,55.4,48.2,77,29.84,10.0,South,15.0,21.9,N/A,,Overcast,170,2013-02-18 13:15:00
7:35 AM,55.4,48.2,77,29.84,10.0,South,15.0,-,N/A,,Overcast,170,2013-02-18 13:35:00
7:55 AM,55.4,48.2,77,29.84,10.0,South,16.1,-,N/A,,Overcast,170,2013-02-18 13:55:00
8:15 AM,57.2,50.0,77,29.85,10.0,South,16.1,20.7,N/A,,Overcast,180,2013-02-18 14:15:00
8:35 AM,57.2,50.0,77,29.85,10.0,South,17.3,20.7,N/A,,Overcast,170,2013-02-18 14:35:00
8:55 AM,57.2,50.0,77,29.85,10.0,South,15.0,20.7,N/A,,Overcast,180,2013-02-18 14:55:00
9:15 AM,59.0,51.8,77,29.85,10.0,South,17.3,23.0,N/A,,Overcast,180,2013-02-18 15:15:00
9:35 AM,60.8,51.8,72,29.83,10.0,South,20.7,31.1,N/A,,Overcast,190,2013-02-18 15:35:00
9:55 AM,60.8,51.8,72,29.82,10.0,South,19.6,31.1,N/A,,Overcast,190,2013-02-18 15:55:00
10:15 AM,62.6,53.6,72,29.82,10.0,SSW,24.2,28.8,N/A,,Overcast,200,2013-02-18 16:15:00
10:35 AM,62.6,53.6,72,29.82,10.0,SSW,23.0,-,N/A,,Overcast,200,2013-02-18 16:35:00
10:55 AM,62.6,53.6,72,29.82,10.0,SSW,23.0,29.9,N/A,,Overcast,210,2013-02-18 16:55:00
11:15 AM,64.4,53.6,68,29.82,10.0,SSW,20.7,32.2,N/A,,Overcast,210,2013-02-18 17:15:00
11:35 AM,64.4,53.6,68,29.81,10.0,SW,20.7,33.4,N/A,,Overcast,220,2013-02-18 17:35:00
11:55 AM,66.2,53.6,64,29.80,10.0,SSW,32.2,41.4,N/A,,Overcast,210,2013-02-18 17:55:00
12:15 PM,66.2,55.4,68,29.78,10.0,SW,27.6,40.3,N/A,,Overcast,220,2013-02-18 18:15:00
12:35 PM,69.8,55.4,60,29.77,10.0,SSW,28.8,42.6,N/A,,Mostly Cloudy,210,2013-02-18 18:35:00
12:55 PM,71.6,55.4,57,29.76,10.0,SW,25.3,38.0,N/A,,Scattered Clouds,220,2013-02-18 18:55:00
1:15 PM,71.6,55.4,57,29.75,10.0,SSW,27.6,34.5,N/A,,Partly Cloudy,210,2013-02-18 19:15:00
1:35 PM,71.6,55.4,57,29.74,10.0,SW,24.2,34.5,N/A,,Mostly Cloudy,220,2013-02-18 19:35:00
1:55 PM,73.4,51.8,47,29.73,10.0,WSW,27.6,33.4,N/A,,Mostly Cloudy,240,2013-02-18 19:55:00
2:15 PM,73.4,53.6,50,29.72,10.0,SW,25.3,34.5,N/A,,Mostly Cloudy,220,2013-02-18 20:15:00
2:35 PM,71.6,53.6,53,29.73,10.0,WSW,23.0,29.9,N/A,,Mostly Cloudy,240,2013-02-18 20:35:00
2:55 PM,75.2,50.0,41,29.72,10.0,WSW,27.6,39.1,N/A,,Partly Cloudy,250,2013-02-18 20:55:00
3:15 PM,75.2,44.6,34,29.74,10.0,WNW,24.2,34.5,N/A,,Partly Cloudy,290,2013-02-18 21:15:00
3:35 PM,71.6,39.2,31,29.75,10.0,WNW,24.2,34.5,N/A,,Clear,290,2013-02-18 21:35:00
3:55 PM,71.6,39.2,31,29.76,10.0,WNW,26.5,35.7,N/A,,Clear,290,2013-02-18 21:55:00
4:15 PM,69.8,35.6,28,29.77,10.0,West,24.2,31.1,N/A,,Clear,280,2013-02-18 22:15:00
4:35 PM,68.0,35.6,30,29.79,10.0,WNW,26.5,33.4,N/A,,Clear,300,2013-02-18 22:35:00
4:55 PM,64.4,35.6,34,29.80,10.0,WNW,25.3,35.7,N/A,,Clear,290,2013-02-18 22:55:00
5:15 PM,64.4,33.8,32,29.81,10.0,NW,27.6,32.2,N/A,,Clear,320,2013-02-18 23:15:00
5:35 PM,62.6,33.8,34,29.83,10.0,NW,24.2,34.5,N/A,,Clear,320,2013-02-18 23:35:00
5:55 PM,60.8,33.8,36,29.85,10.0,NW,24.2,31.1,N/A,,Clear,320,2013-02-18 23:55:00
6:15 PM,60.8,33.8,36,29.87,10.0,NNW,23.0,27.6,N/A,,Clear,330,2013-02-19 00:15:00
6:35 PM,59.0,33.8,39,29.90,10.0,NW,24.2,28.8,N/A,,Clear,320,2013-02-19 00:35:00
6:55 PM,57.2,33.8,41,29.92,10.0,NW,17.3,-,N/A,,Clear,320,2013-02-19 00:55:00
7:15 PM,57.2,33.8,41,29.95,10.0,NW,19.6,26.5,N/A,,Clear,320,2013-02-19 01:15:00
7:35 PM,55.4,32.0,41,29.96,10.0,NNW,20.7,26.5,N/A,,Clear,330,2013-02-19 01:35:00
7:55 PM,55.4,32.0,41,29.98,10.0,NNW,13.8,-,N/A,,Clear,330,2013-02-19 01:55:00
8:15 PM,53.6,33.8,47,29.99,10.0,NNW,13.8,-,N/A,,Clear,330,2013-02-19 02:15:00
8:35 PM,53.6,32.0,44,30.01,10.0,NNW,10.4,-,N/A,,Clear,330,2013-02-19 02:35:00
8:55 PM,51.8,32.0,47,30.03,10.0,NW,12.7,-,N/A,,Clear,320,2013-02-19 02:55:00
9:15 PM,51.8,32.0,47,30.04,10.0,NW,9.2,-,N/A,,Clear,320,2013-02-19 03:15:00
9:35 PM,50.0,32.0,50,30.05,10.0,NW,9.2,-,N/A,,Clear,320,2013-02-19 03:35:00
9:55 PM,50.0,33.8,54,30.06,10.0,NW,12.7,-,N/A,,Clear,320,2013-02-19 03:55:00
10:15 PM,50.0,32.0,50,30.08,10.0,NNW,12.7,-,N/A,,Clear,330,2013-02-19 04:15:00
10:35 PM,50.0,30.2,47,30.08,10.0,NNW,15.0,18.4,N/A,,Clear,330,2013-02-19 04:35:00
10:55 PM,50.0,30.2,47,30.10,10.0,NNW,16.1,24.2,N/A,,Clear,330,2013-02-19 04:55:00
11:15 PM,48.2,30.2,50,30.11,10.0,NNW,13.8,-,N/A,,Clear,330,2013-02-19 05:15:00
11:35 PM,48.2,30.2,50,30.12,10.0,NW,11.5,-,N/A,,Clear,320,2013-02-19 05:35:00
11:55 PM,48.2,30.2,50,30.12,10.0,NNW,12.7,-,N/A,,Clear,330,2013-02-19 05:55:00